Flag for United Kingdom Weather past 2 weeks in Horsham, England, United Kingdom

Now
43 °F

Light rain. Partly cloudy.


Feels Like: 37 °F
Forecast: 38 / 50 °F
Wind: 10 mph from Southwest

Location: London / Gatwick Airport

Current Time: Jan 28, 2015 at 1:49:21 AM

Latest Report: Jan 28, 2015 at 1:20 AM


Visibility: 4 mi

Pressure: 30.07 "Hg

Humidity: 87%

Dew point: 39 °F

Location of HorshamLocation

Historic Weather in Horsham — Graph

°F

Horsham temperature yesterday

Maximum temperature yesterday: 48 °F (at 1:20 PM)
Minimum temperature yesterday: 37 °F (at 1:20 AM)
Average temperature yesterday: 42 °F

Past Weeks' High & Low Weather Summary

 TemperatureHumidityPressure
High52 °F (Jan 13, 12:20 AM)100% (Jan 16, 12:50 PM)30.48 "Hg (Jan 16, 12:50 PM)
Low23 °F (Jan 20, 4:50 AM)61% (Jan 14, 2:20 PM)29.21 "Hg (Jan 15, 2:50 AM)
Average39 °F85%29.94 "Hg
* Reported Jan 13 12:20 AM — Jan 28 12:20 AM, Horsham, Weather by CustomWeather, © 2014

Note: Actual official high and low records may vary slightly from our data, if they occured in-between our weather recording intervals... More about our weather records

Advertising

Horsham weather history for previous 24 hours

 ConditionsComfort  
Time TempWeatherWind HumidityBarometerVisibility
12:20 AM
Jan 28
43 °FMostly cloudy.9 mph81%30.09 "HgN/A
11:50 PM
Jan 27
43 °FPassing clouds.7 mph76%30.12 "HgN/A
11:20 PM43 °FPassing clouds.7 mph81%30.15 "HgN/A
10:50 PM43 °FOvercast.7 mph76%30.18 "HgN/A
10:20 PM43 °FPassing clouds.6 mph76%30.15 "HgN/A
9:50 PM43 °FPassing clouds.6 mph76%30.18 "HgN/A
9:20 PM43 °FPassing clouds.9 mph81%30.21 "HgN/A
8:50 PM45 °FPassing clouds.10 mph76%30.24 "HgN/A
8:20 PM45 °FPassing clouds.6 mph76%30.21 "HgN/A
7:50 PM43 °FPassing clouds.7 mph81%30.24 "HgN/A
7:20 PM43 °FPassing clouds.9 mph81%30.24 "HgN/A
6:50 PM43 °FPartly cloudy.10 mph81%30.27 "HgN/A
6:20 PM45 °FPassing clouds.9 mph76%30.24 "HgN/A
5:50 PM45 °FPartly cloudy.8 mph81%30.24 "HgN/A
5:20 PM45 °FPartly cloudy.5 mph81%30.27 "HgN/A
4:50 PM45 °FPassing clouds.3 mph81%30.27 "HgN/A
4:20 PM45 °FPartly sunny.7 mph76%30.27 "HgN/A
3:50 PM46 °FScattered clouds.7 mph76%30.27 "HgN/A
3:20 PM46 °FScattered clouds.7 mph76%30.27 "HgN/A
2:50 PM48 °FPartly sunny.10 mph71%30.30 "HgN/A
2:20 PM48 °FScattered clouds.10 mph71%30.30 "HgN/A
1:50 PM48 °FPartly sunny.9 mph71%30.30 "HgN/A
1:20 PM48 °FPartly sunny.9 mph71%30.33 "HgN/A
12:50 PM46 °FPassing clouds.10 mph76%30.33 "HgN/A
12:20 PM46 °FPassing clouds.12 mph76%30.33 "HgN/A
11:50 AM46 °FPassing clouds.9 mph76%30.33 "HgN/A
11:20 AM46 °FPassing clouds.9 mph76%30.36 "HgN/A
10:50 AM45 °FPassing clouds.9 mph81%30.36 "HgN/A
10:20 AM43 °FSunny.6 mph81%30.36 "Hg10 mi
9:50 AM43 °FPassing clouds.5 mph81%30.36 "HgN/A
9:20 AM39 °FSunny.2 mph87%30.36 "Hg10 mi
8:50 AM39 °FSunny.3 mph87%30.36 "Hg10 mi
8:20 AM39 °FSunny.7 mph87%30.36 "Hg10 mi
7:50 AM39 °FSunny.7 mph87%30.36 "Hg10 mi
7:20 AM41 °FClear.7 mph81%30.36 "Hg10 mi
6:50 AM39 °FClear.5 mph87%30.36 "Hg10 mi
6:20 AM39 °FClear.5 mph87%30.36 "Hg10 mi
5:50 AM39 °FClear.6 mph81%30.36 "Hg10 mi
5:20 AM39 °FClear.7 mph81%30.36 "Hg10 mi
4:50 AM39 °FClear.7 mph81%30.36 "Hg10 mi
4:20 AM39 °FClear.8 mph81%30.36 "Hg10 mi
3:50 AM39 °FClear.8 mph81%30.36 "Hg10 mi
3:20 AM37 °FClear.7 mph87%30.36 "Hg10 mi
2:50 AM37 °FClear.5 mph87%30.36 "Hg10 mi
2:20 AM37 °FPassing clouds.6 mph87%30.36 "HgN/A
1:50 AM37 °FClear.5 mph87%30.36 "Hg10 mi
1:20 AM37 °FClear.6 mph87%30.36 "Hg10 mi
Weather by CustomWeather, © 2014

See weather overviewHow to use our weather pages